| time (UTC) | temp F | wind direction | speed knots | gust knots | rain 1hr in | rain 24hr in | rain mn in | humidity % | barometer mb |
| 20260506201724 | 85 | 87 | 4.3 | 4.3 | 0.00 | 0.00 | 0.00 | 84 | 1009.9 |
| 20260506201220 | 85 | 141 | 5.2 | 7.8 | 0.00 | 0.00 | 0.00 | 84 | 1010.0 |
| 20260506200717 | 85 | 91 | 4.3 | 8.7 | 0.00 | 0.00 | 0.00 | 84 | 1010.1 |
| 20260506200208 | 85 | 103 | 3.5 | 4.3 | 0.00 | 0.00 | 0.00 | 84 | 1010.2 |
| 20260506195705 | 85 | 49 | 7.8 | 13.0 | 0.00 | 0.00 | 0.00 | 84 | 1010.2 |
| 20260506195201 | 85 | 131 | 7.8 | 12.2 | 0.00 | 0.00 | 0.00 | 84 | 1010.2 |
| 20260506194659 | 85 | 98 | 4.3 | 6.1 | 0.00 | 0.00 | 0.00 | 83 | 1010.3 |
| 20260506194155 | 85 | 95 | 10.4 | 12.2 | 0.00 | 0.00 | 0.00 | 83 | 1010.4 |
| 20260506193652 | 86 | 135 | 7.8 | 10.4 | 0.00 | 0.00 | 0.00 | 82 | 1010.5 |
| 20260506193149 | 86 | 106 | 6.1 | 8.7 | 0.00 | 0.00 | 0.00 | 82 | 1010.6 |
| 20260506192646 | 86 | 87 | 6.1 | 6.1 | 0.00 | 0.00 | 0.00 | 81 | 1010.5 |
| 20260506192142 | 87 | 122 | 2.6 | 4.3 | 0.00 | 0.00 | 0.00 | 80 | 1010.3 |
| 20260506191639 | 88 | 132 | 5.2 | 7.8 | 0.00 | 0.00 | 0.00 | 77 | 1010.5 |
| 20260506191135 | 89 | 95 | 0.0 | 0.0 | 0.00 | 0.00 | 0.00 | 74 | 1010.6 |
| 20260506190633 | 89 | 120 | 0.0 | 0.0 | 0.00 | 0.00 | 0.00 | 74 | 1010.6 |
| 20260506190129 | 89 | 161 | 1.7 | 1.7 | 0.00 | 0.00 | 0.00 | 75 | 1010.8 |
| 20260506185627 | 89 | 155 | 1.7 | 2.6 | 0.00 | 0.00 | 0.00 | 74 | 1010.6 |
| 20260506185123 | 89 | 186 | 2.6 | 4.3 | 0.00 | 0.00 | 0.00 | 74 | 1010.6 |
| 20260506184620 | 90 | 187 | 0.0 | 1.7 | 0.00 | 0.00 | 0.00 | 73 | 1010.5 |
| 20260506184117 | 90 | 209 | 4.3 | 4.3 | 0.00 | 0.00 | 0.00 | 74 | 1010.8 |
| 20260506183614 | 89 | 118 | 0.0 | 0.0 | 0.00 | 0.00 | 0.00 | 74 | 1010.7 |
| 20260506183110 | 88 | 141 | 2.6 | 2.6 | 0.00 | 0.00 | 0.00 | 75 | 1010.9 |
| 20260506182608 | 88 | 151 | 0.9 | 1.7 | 0.00 | 0.00 | 0.00 | 76 | 1010.9 |
| 20260506182104 | 88 | 152 | 4.3 | 4.3 | 0.00 | 0.00 | 0.00 | 76 | 1010.8 |
| 20260506181602 | 88 | 86 | 0.0 | 0.0 | 0.00 | 0.00 | 0.00 | 75 | 1011.0 |
| 20260506181059 | 88 | 171 | 1.7 | 1.7 | 0.00 | 0.00 | 0.00 | 75 | 1010.9 |
| 20260506180556 | 89 | 180 | 2.6 | 2.6 | 0.00 | 0.00 | 0.00 | 75 | 1010.9 |
| 20260506180052 | 88 | 161 | 4.3 | 6.1 | 0.00 | 0.00 | 0.00 | 75 | 1010.9 |
| 20260506175548 | 87 | 200 | 2.6 | 2.6 | 0.00 | 0.00 | 0.00 | 77 | 1011.1 |
| 20260506175045 | 88 | 183 | 1.7 | 2.6 | 0.00 | 0.00 | 0.00 | 77 | 1010.9 |
| 20260506174544 | 89 | 263 | 3.5 | 4.3 | 0.00 | 0.00 | 0.00 | 75 | 1010.9 |
| 20260506174039 | 88 | 324 | 4.3 | 4.3 | 0.00 | 0.00 | 0.00 | 74 | 1011.1 |
| 20260506173537 | 88 | 196 | 2.6 | 2.6 | 0.00 | 0.00 | 0.00 | 77 | 1011.0 |
| 20260506173034 | 88 | 236 | 6.1 | 8.7 | 0.00 | 0.00 | 0.00 | 76 | 1011.0 |
| 20260506172532 | 88 | 215 | 6.1 | 7.8 | 0.00 | 0.00 | 0.00 | 77 | 1010.9 |
| 20260506172027 | 88 | 235 | 5.2 | 7.8 | 0.00 | 0.00 | 0.00 | 77 | 1010.8 |
| 20260506171525 | 87 | 194 | 3.5 | 4.3 | 0.00 | 0.00 | 0.00 | 78 | 1011.0 |
| 20260506171022 | 87 | 198 | 7.0 | 8.7 | 0.00 | 0.00 | 0.00 | 79 | 1011.0 |
| 20260506170520 | 86 | 255 | 7.0 | 7.8 | 0.00 | 0.00 | 0.00 | 80 | 1010.9 |
| 20260506170012 | 85 | 165 | 3.5 | 4.3 | 0.00 | 0.00 | 0.00 | 81 | 1010.9 |
| 20260506165510 | 84 | 210 | 4.3 | 6.1 | 0.00 | 0.00 | 0.00 | 83 | 1010.9 |
| 20260506165006 | 84 | 166 | 2.6 | 2.6 | 0.00 | 0.00 | 0.00 | 84 | 1011.1 |
| 20260506164503 | 83 | 228 | 2.6 | 2.6 | 0.00 | 0.00 | 0.00 | 85 | 1011.1 |
| 20260506164000 | 83 | 166 | 4.3 | 6.1 | 0.00 | 0.00 | 0.00 | 86 | 1011.0 |
| 20260506163455 | 82 | 165 | 6.1 | 7.8 | 0.00 | 0.00 | 0.00 | 87 | 1011.0 |
| 20260506162950 | 82 | 175 | 6.1 | 7.8 | 0.00 | 0.00 | 0.00 | 87 | 1011.2 |
| 20260506162448 | 82 | 202 | 3.5 | 4.3 | 0.00 | 0.00 | 0.00 | 87 | 1011.2 |
| 20260506161945 | 82 | 198 | 3.5 | 4.3 | 0.00 | 0.00 | 0.00 | 89 | 1011.1 |
| 20260506161443 | 81 | 161 | 4.3 | 4.3 | 0.00 | 0.00 | 0.00 | 89 | 1011.2 |
| 20260506160940 | 81 | 191 | 4.3 | 4.3 | 0.00 | 0.00 | 0.00 | 90 | 1011.0 |
| 20260506160438 | 81 | 154 | 4.3 | 4.3 | 0.00 | 0.00 | 0.00 | 90 | 1011.0 |
| 20260506155935 | 81 | 173 | 5.2 | 7.8 | 0.00 | 0.00 | 0.00 | 89 | 1011.0 |
| 20260506155432 | 81 | 180 | 4.3 | 6.1 | 0.00 | 0.00 | 0.00 | 89 | 1010.9 |
| 20260506153554 | 81 | 190 | 6.1 | 8.7 | 0.00 | 0.00 | 0.00 | 89 | 1010.6 |
| 20260506153051 | 81 | 215 | 5.2 | 6.1 | 0.00 | 0.00 | 0.00 | 90 | 1010.7 |
| 20260506152548 | 81 | 173 | 6.1 | 7.8 | 0.00 | 0.00 | 0.00 | 90 | 1010.5 |
| 20260506152046 | 81 | 173 | 7.8 | 12.2 | 0.00 | 0.00 | 0.00 | 90 | 1010.6 |
| 20260506151544 | 80 | 200 | 3.5 | 6.1 | 0.00 | 0.00 | 0.00 | 90 | 1010.5 |
| 20260506151041 | 80 | 143 | 7.0 | 8.7 | 0.00 | 0.00 | 0.00 | 91 | 1010.5 |
| 20260506150537 | 80 | 183 | 7.0 | 7.8 | 0.00 | 0.00 | 0.00 | 91 | 1010.4 |
| 20260506150034 | 80 | 161 | 8.7 | 13.0 | 0.00 | 0.00 | 0.00 | 91 | 1010.7 |
| 20260506145531 | 80 | 158 | 4.3 | 6.1 | 0.00 | 0.00 | 0.00 | 91 | 1010.7 |
| 20260506145028 | 80 | 162 | 6.1 | 8.7 | 0.00 | 0.00 | 0.00 | 91 | 1010.6 |
| 20260506144525 | 80 | 148 | 7.8 | 12.2 | 0.00 | 0.00 | 0.00 | 91 | 1010.7 |
| 20260506144022 | 80 | 163 | 6.1 | 7.8 | 0.00 | 0.00 | 0.00 | 91 | 1010.6 |
| 20260506143520 | 80 | 162 | 7.0 | 8.7 | 0.00 | 0.00 | 0.00 | 91 | 1010.7 |
| 20260506143019 | 79 | 233 | 7.8 | 12.2 | 0.00 | 0.00 | 0.00 | 91 | 1010.6 |
| 20260506142516 | 79 | 121 | 4.3 | 6.1 | 0.00 | 0.00 | 0.00 | 91 | 1010.8 |
| 20260506142014 | 79 | 176 | 3.5 | 4.3 | 0.00 | 0.00 | 0.00 | 92 | 1010.6 |
| 20260506141511 | 79 | 160 | 6.1 | 7.8 | 0.00 | 0.00 | 0.00 | 92 | 1010.8 |
| 20260506141009 | 79 | 163 | 6.1 | 8.7 | 0.00 | 0.00 | 0.00 | 92 | 1010.9 |
| 20260506140506 | 79 | 137 | 7.0 | 8.7 | 0.00 | 0.00 | 0.00 | 92 | 1010.7 |
| 20260506140004 | 79 | 123 | 6.1 | 7.8 | 0.00 | 0.00 | 0.00 | 92 | 1010.7 |
| 20260506135500 | 79 | 168 | 7.0 | 8.7 | 0.00 | 0.00 | 0.00 | 92 | 1010.7 |
| 20260506134956 | 79 | 123 | 1.7 | 1.7 | 0.00 | 0.00 | 0.00 | 92 | 1010.9 |
| 20260506134452 | 79 | 145 | 4.3 | 6.1 | 0.00 | 0.00 | 0.00 | 92 | 1010.6 |
| 20260506133949 | 79 | 148 | 2.6 | 6.1 | 0.00 | 0.00 | 0.00 | 92 | 1010.7 |
| 20260506133446 | 79 | 153 | 6.1 | 7.8 | 0.00 | 0.00 | 0.00 | 92 | 1010.6 |
| 20260506132943 | 79 | 136 | 2.6 | 4.3 | 0.00 | 0.00 | 0.00 | 92 | 1010.7 |
| 20260506132440 | 78 | 144 | 5.2 | 6.1 | 0.00 | 0.00 | 0.00 | 92 | 1010.5 |
| 20260506131938 | 78 | 177 | 4.3 | 4.3 | 0.00 | 0.00 | 0.00 | 92 | 1010.8 |
| 20260506131434 | 78 | 119 | 1.7 | 2.6 | 0.00 | 0.00 | 0.00 | 92 | 1010.5 |
| 20260506130931 | 78 | 150 | 2.6 | 2.6 | 0.00 | 0.00 | 0.00 | 92 | 1010.6 |
| 20260506130427 | 78 | 149 | 1.7 | 1.7 | 0.00 | 0.00 | 0.00 | 92 | 1010.4 |
| 20260506125925 | 78 | 168 | 2.6 | 4.3 | 0.00 | 0.00 | 0.00 | 92 | 1010.4 |
| 20260506125424 | 78 | 152 | 6.1 | 8.7 | 0.00 | 0.00 | 0.00 | 92 | 1010.5 |
| 20260506124922 | 78 | 140 | 2.6 | 2.6 | 0.00 | 0.00 | 0.00 | 92 | 1010.4 |
| 20260506124419 | 78 | 137 | 3.5 | 4.3 | 0.00 | 0.00 | 0.00 | 92 | 1010.3 |
| 20260506123916 | 78 | 150 | 6.1 | 7.8 | 0.00 | 0.00 | 0.00 | 92 | 1010.2 |
| 20260506123414 | 78 | 96 | 2.6 | 4.3 | 0.00 | 0.00 | 0.00 | 92 | 1010.1 |
| 20260506122911 | 78 | 143 | 6.1 | 6.1 | 0.00 | 0.00 | 0.00 | 92 | 1010.0 |
| 20260506122408 | 78 | 99 | 3.5 | 4.3 | 0.00 | 0.00 | 0.00 | 92 | 1010.2 |
| 20260506121907 | 78 | 138 | 3.5 | 4.3 | 0.00 | 0.00 | 0.00 | 92 | 1010.1 |
| 20260506121403 | 78 | 126 | 7.0 | 8.7 | 0.00 | 0.00 | 0.00 | 92 | 1010.0 |
| 20260506120900 | 78 | 123 | 7.0 | 8.7 | 0.00 | 0.00 | 0.00 | 93 | 1009.9 |
| 20260506120358 | 78 | 116 | 3.5 | 4.3 | 0.00 | 0.00 | 0.00 | 93 | 1009.8 |
| 20260506115855 | 78 | 113 | 1.7 | 2.6 | 0.00 | 0.00 | 0.00 | 93 | 1009.9 |
| 20260506115353 | 77 | 109 | 6.1 | 6.1 | 0.00 | 0.00 | 0.00 | 93 | 1009.7 |
| 20260506114851 | 77 | 105 | 0.9 | 1.7 | 0.00 | 0.00 | 0.00 | 93 | 1009.9 |
| 20260506114348 | 77 | 101 | 1.7 | 1.7 | 0.00 | 0.00 | 0.00 | 93 | 1009.8 |
| 20260506113847 | 78 | 108 | 3.5 | 4.3 | 0.00 | 0.00 | 0.00 | 93 | 1009.9 |
| 20260506113344 | 78 | 130 | 2.6 | 2.6 | 0.00 | 0.00 | 0.00 | 93 | 1009.6 |
| 20260506112840 | 78 | 111 | 3.5 | 4.3 | 0.00 | 0.00 | 0.00 | 92 | 1009.9 |
| 20260506112338 | 78 | 124 | 2.6 | 4.3 | 0.00 | 0.00 | 0.00 | 92 | 1009.8 |
| 20260506111835 | 78 | 100 | 3.5 | 4.3 | 0.00 | 0.00 | 0.00 | 92 | 1009.6 |
| 20260506111333 | 78 | 90 | 2.6 | 2.6 | 0.00 | 0.00 | 0.00 | 92 | 1009.7 |
| 20260506110830 | 78 | 97 | 0.9 | 1.7 | 0.00 | 0.00 | 0.00 | 92 | 1009.7 |
| 20260506110327 | 78 | 127 | 2.6 | 4.3 | 0.00 | 0.00 | 0.00 | 92 | 1009.7 |
| 20260506105824 | 78 | 94 | 1.7 | 1.7 | 0.00 | 0.00 | 0.00 | 92 | 1009.6 |
| 20260506105320 | 78 | 105 | 1.7 | 1.7 | 0.00 | 0.00 | 0.00 | 92 | 1009.6 |
| 20260506104818 | 78 | 91 | 3.5 | 6.1 | 0.00 | 0.00 | 0.00 | 92 | 1009.3 |
| 20260506104316 | 78 | 86 | 3.5 | 4.3 | 0.00 | 0.00 | 0.00 | 92 | 1009.3 |
| 20260506103813 | 78 | 101 | 2.6 | 2.6 | 0.00 | 0.00 | 0.00 | 92 | 1009.6 |
| 20260506103310 | 78 | 103 | 2.6 | 2.6 | 0.00 | 0.00 | 0.00 | 92 | 1009.6 |
| 20260506102808 | 78 | 106 | 2.6 | 2.6 | 0.00 | 0.00 | 0.00 | 92 | 1009.5 |
| 20260506102306 | 78 | 96 | 2.6 | 2.6 | 0.00 | 0.00 | 0.00 | 92 | 1009.6 |
| 20260506101803 | 78 | 131 | 2.6 | 2.6 | 0.00 | 0.00 | 0.00 | 92 | 1009.5 |
| 20260506101258 | 78 | 140 | 2.6 | 2.6 | 0.00 | 0.00 | 0.00 | 92 | 1009.5 |
| 20260506100757 | 78 | 125 | 2.6 | 2.6 | 0.00 | 0.00 | 0.00 | 92 | 1009.4 |
| 20260506100255 | 78 | 103 | 0.0 | 0.0 | 0.00 | 0.00 | 0.00 | 92 | 1009.4 |
| 20260506095753 | 78 | 144 | 4.3 | 4.3 | 0.00 | 0.00 | 0.00 | 92 | 1009.5 |
| 20260506095249 | 78 | 122 | 0.9 | 1.7 | 0.00 | 0.00 | 0.00 | 92 | 1009.5 |
| 20260506094746 | 78 | 134 | 2.6 | 2.6 | 0.00 | 0.00 | 0.00 | 92 | 1009.3 |
| 20260506094245 | 78 | 112 | 3.5 | 4.3 | 0.00 | 0.00 | 0.00 | 92 | 1009.3 |
| 20260506093743 | 78 | 167 | 7.8 | 8.7 | 0.00 | 0.00 | 0.00 | 92 | 1009.4 |
| 20260506093239 | 78 | 124 | 2.6 | 2.6 | 0.00 | 0.00 | 0.00 | 92 | 1009.3 |
| 20260506092737 | 78 | 95 | 4.3 | 6.1 | 0.00 | 0.00 | 0.00 | 92 | 1009.4 |
| 20260506092235 | 78 | 112 | 3.5 | 4.3 | 0.00 | 0.00 | 0.00 | 92 | 1009.2 |
| 20260506091732 | 78 | 130 | 4.3 | 6.1 | 0.00 | 0.00 | 0.00 | 92 | 1009.3 |
| 20260506091230 | 78 | 121 | 2.6 | 4.3 | 0.00 | 0.00 | 0.00 | 92 | 1009.1 |
| 20260506090727 | 78 | 161 | 6.1 | 7.8 | 0.00 | 0.00 | 0.00 | 92 | 1009.2 |
| 20260506090224 | 78 | 140 | 5.2 | 6.1 | 0.00 | 0.00 | 0.00 | 92 | 1009.1 |
| 20260506085721 | 78 | 159 | 6.1 | 7.8 | 0.00 | 0.00 | 0.00 | 92 | 1009.4 |
| 20260506085217 | 78 | 113 | 3.5 | 4.3 | 0.00 | 0.00 | 0.00 | 92 | 1009.0 |
| 20260506084714 | 78 | 140 | 7.0 | 8.7 | 0.00 | 0.00 | 0.00 | 92 | 1009.2 |
| 20260506084210 | 78 | 179 | 3.5 | 4.3 | 0.00 | 0.00 | 0.00 | 92 | 1009.0 |
| 20260506083707 | 78 | 160 | 9.6 | 13.0 | 0.00 | 0.00 | 0.00 | 92 | 1008.9 |
| 20260506083205 | 78 | 130 | 7.8 | 10.4 | 0.00 | 0.00 | 0.00 | 92 | 1008.9 |
| 20260506082702 | 78 | 179 | 4.3 | 7.8 | 0.00 | 0.00 | 0.00 | 92 | 1009.1 |
| 20260506082202 | 78 | 206 | 4.3 | 7.8 | 0.00 | 0.00 | 0.00 | 92 | 1008.7 |
| 20260506081700 | 78 | 188 | 6.1 | 7.8 | 0.00 | 0.00 | 0.00 | 92 | 1008.8 |
| 20260506081158 | 78 | 159 | 6.1 | 8.7 | 0.00 | 0.00 | 0.00 | 92 | 1009.2 |
| 20260506080656 | 78 | 165 | 4.3 | 4.3 | 0.00 | 0.00 | 0.00 | 91 | 1009.0 |
| 20260506080152 | 78 | 131 | 7.0 | 8.7 | 0.00 | 0.00 | 0.00 | 91 | 1009.2 |
| 20260506073136 | 78 | 138 | 7.0 | 10.4 | 0.00 | 0.00 | 0.00 | 91 | 1009.2 |
| 20260506072632 | 78 | 182 | 7.8 | 10.4 | 0.00 | 0.00 | 0.00 | 91 | 1009.4 |
| 20260506072131 | 78 | 169 | 8.7 | 10.4 | 0.00 | 0.00 | 0.00 | 91 | 1009.1 |
| 20260506071628 | 78 | 147 | 10.4 | 13.0 | 0.00 | 0.00 | 0.00 | 91 | 1009.0 |
| 20260506071125 | 78 | 149 | 8.7 | 13.0 | 0.00 | 0.00 | 0.00 | 91 | 1009.0 |
| 20260506070622 | 78 | 146 | 9.6 | 12.2 | 0.00 | 0.00 | 0.00 | 91 | 1009.4 |
| 20260506070119 | 78 | 192 | 6.1 | 8.7 | 0.00 | 0.00 | 0.00 | 91 | 1009.3 |
| 20260506062056 | 78 | 165 | 7.8 | 8.7 | 0.00 | 0.00 | 0.00 | 91 | 1009.8 |
| 20260506061552 | 78 | 143 | 7.0 | 7.8 | 0.00 | 0.00 | 0.00 | 91 | 1009.9 |
| 20260506061050 | 78 | 158 | 9.6 | 10.4 | 0.00 | 0.00 | 0.00 | 91 | 1009.7 |
| 20260506060548 | 78 | 174 | 9.6 | 12.2 | 0.00 | 0.00 | 0.00 | 91 | 1010.0 |
| 20260506051017 | 78 | 202 | 8.7 | 13.0 | 0.00 | 0.00 | 0.00 | 92 | 1010.3 |
| 20260506050515 | 78 | 167 | 5.2 | 10.4 | 0.00 | 0.00 | 0.00 | 92 | 1010.3 |
| 20260506045005 | 78 | 151 | 8.7 | 12.2 | 0.00 | 0.00 | 0.00 | 92 | 1010.0 |
| 20260506044504 | 78 | 171 | 9.6 | 10.4 | 0.00 | 0.00 | 0.00 | 92 | 1010.3 |
| 20260506044000 | 78 | 148 | 4.3 | 6.1 | 0.00 | 0.00 | 0.00 | 92 | 1010.4 |
| 20260506043457 | 78 | 127 | 7.8 | 8.7 | 0.00 | 0.00 | 0.00 | 92 | 1010.1 |
| 20260506042955 | 78 | 157 | 6.1 | 10.4 | 0.00 | 0.00 | 0.00 | 92 | 1010.1 |
| 20260506042454 | 78 | 146 | 5.2 | 7.8 | 0.00 | 0.00 | 0.00 | 92 | 1010.1 |
| 20260506041952 | 78 | 170 | 12.2 | 14.8 | 0.00 | 0.00 | 0.00 | 92 | 1010.2 |
| 20260506041450 | 78 | 195 | 5.2 | 7.8 | 0.00 | 0.00 | 0.00 | 92 | 1009.9 |
| 20260506040947 | 78 | 114 | 7.8 | 10.4 | 0.00 | 0.00 | 0.00 | 92 | 1009.9 |
| 20260506040444 | 78 | 146 | 6.1 | 8.7 | 0.00 | 0.00 | 0.00 | 92 | 1010.1 |
| 20260506035940 | 78 | 139 | 8.7 | 10.4 | 0.00 | 0.00 | 0.00 | 91 | 1009.9 |
| 20260506035438 | 78 | 159 | 7.0 | 8.7 | 0.00 | 0.00 | 0.00 | 91 | 1010.0 |
| 20260506034934 | 78 | 189 | 11.3 | 18.2 | 0.00 | 0.00 | 0.00 | 91 | 1009.9 |
| 20260506034431 | 78 | 195 | 5.2 | 6.1 | 0.00 | 0.00 | 0.00 | 91 | 1009.8 |
| 20260506033929 | 78 | 132 | 4.3 | 6.1 | 0.00 | 0.00 | 0.00 | 91 | 1010.0 |
| 20260506033426 | 78 | 148 | 8.7 | 13.0 | 0.00 | 0.00 | 0.00 | 91 | 1009.7 |
| 20260506032922 | 78 | 176 | 8.7 | 8.7 | 0.00 | 0.00 | 0.00 | 91 | 1009.8 |
| 20260506032419 | 78 | 180 | 9.6 | 13.0 | 0.00 | 0.00 | 0.00 | 91 | 1009.6 |
| 20260506031916 | 78 | 157 | 7.8 | 13.0 | 0.00 | 0.00 | 0.00 | 91 | 1009.7 |
| 20260506031414 | 78 | 202 | 10.4 | 13.0 | 0.00 | 0.00 | 0.00 | 91 | 1009.5 |
| 20260506030911 | 78 | 184 | 13.0 | 20.9 | 0.00 | 0.00 | 0.00 | 91 | 1009.4 |
| 20260506030409 | 78 | 146 | 4.3 | 4.3 | 0.00 | 0.00 | 0.00 | 91 | 1009.4 |
| 20260506025906 | 78 | 172 | 11.3 | 19.1 | 0.00 | 0.00 | 0.00 | 91 | 1009.5 |
| 20260506025403 | 78 | 135 | 8.7 | 12.2 | 0.00 | 0.00 | 0.00 | 91 | 1009.2 |
| 20260506024859 | 78 | 180 | 11.3 | 13.0 | 0.00 | 0.00 | 0.00 | 91 | 1009.3 |
| 20260506024356 | 78 | 153 | 10.4 | 12.2 | 0.00 | 0.00 | 0.00 | 91 | 1009.2 |
| 20260506023852 | 78 | 158 | 9.6 | 13.0 | 0.00 | 0.00 | 0.00 | 91 | 1009.2 |
| 20260506023349 | 78 | 157 | 13.9 | 18.2 | 0.00 | 0.00 | 0.00 | 91 | 1008.9 |
| 20260506022846 | 78 | 155 | 9.6 | 14.8 | 0.00 | 0.00 | 0.00 | 91 | 1009.3 |
| 20260506022343 | 79 | 151 | 7.0 | 8.7 | 0.00 | 0.00 | 0.00 | 91 | 1009.1 |
| 20260506021841 | 79 | 157 | 13.0 | 20.9 | 0.00 | 0.00 | 0.00 | 90 | 1009.1 |
| 20260506021338 | 79 | 132 | 16.5 | 20.9 | 0.00 | 0.00 | 0.00 | 90 | 1009.1 |
| 20260506020835 | 79 | 149 | 8.7 | 12.2 | 0.00 | 0.00 | 0.00 | 90 | 1008.8 |
| 20260506020333 | 79 | 178 | 11.3 | 18.2 | 0.00 | 0.00 | 0.00 | 90 | 1008.8 |
| 20260506015830 | 79 | 133 | 7.0 | 8.7 | 0.00 | 0.00 | 0.00 | 90 | 1008.5 |
| 20260506015327 | 79 | 216 | 7.0 | 8.7 | 0.00 | 0.00 | 0.00 | 90 | 1008.5 |
| 20260506014824 | 79 | 140 | 6.1 | 7.8 | 0.00 | 0.00 | 0.00 | 90 | 1008.8 |
| 20260506014321 | 79 | 169 | 11.3 | 16.5 | 0.00 | 0.00 | 0.00 | 89 | 1008.4 |
| 20260506013817 | 79 | 182 | 2.6 | 2.6 | 0.00 | 0.00 | 0.00 | 89 | 1008.5 |
| 20260506013315 | 79 | 130 | 10.4 | 14.8 | 0.00 | 0.00 | 0.00 | 89 | 1008.5 |
| 20260506012811 | 80 | 156 | 9.6 | 13.0 | 0.00 | 0.00 | 0.00 | 89 | 1008.5 |
| 20260506012308 | 80 | 170 | 8.7 | 13.0 | 0.00 | 0.00 | 0.00 | 89 | 1008.1 |
| 20260506011805 | 80 | 131 | 9.6 | 10.4 | 0.00 | 0.00 | 0.00 | 89 | 1008.4 |
| 20260506011302 | 80 | 153 | 10.4 | 13.0 | 0.00 | 0.00 | 0.00 | 88 | 1007.8 |
| 20260506010800 | 80 | 165 | 13.9 | 22.6 | 0.00 | 0.00 | 0.00 | 88 | 1007.8 |
| 20260506010257 | 80 | 174 | 7.0 | 8.7 | 0.00 | 0.00 | 0.00 | 88 | 1007.7 |
| 20260506005754 | 80 | 168 | 7.8 | 13.0 | 0.00 | 0.00 | 0.00 | 88 | 1007.6 |
| 20260506005251 | 80 | 179 | 13.0 | 19.1 | 0.00 | 0.00 | 0.00 | 87 | 1007.8 |
| 20260506004747 | 81 | 125 | 5.2 | 6.1 | 0.00 | 0.00 | 0.00 | 87 | 1007.7 |
| 20260506004245 | 81 | 150 | 17.4 | 22.6 | 0.00 | 0.00 | 0.00 | 87 | 1007.8 |
| 20260506003740 | 81 | 169 | 8.7 | 13.0 | 0.00 | 0.00 | 0.00 | 86 | 1007.7 |
| 20260506003237 | 81 | 157 | 7.8 | 10.4 | 0.00 | 0.00 | 0.00 | 86 | 1007.6 |
| 20260506002733 | 82 | 190 | 12.2 | 20.9 | 0.00 | 0.00 | 0.00 | 86 | 1007.6 |
| 20260506002229 | 82 | 147 | 10.4 | 14.8 | 0.00 | 0.00 | 0.00 | 85 | 1007.5 |
| 20260506001725 | 82 | 185 | 5.2 | 8.7 | 0.00 | 0.00 | 0.00 | 84 | 1007.3 |
| 20260506001223 | 82 | 116 | 13.0 | 20.9 | 0.00 | 0.00 | 0.00 | 84 | 1007.7 |
| 20260506000720 | 83 | 137 | 12.2 | 19.1 | 0.00 | 0.00 | 0.00 | 83 | 1007.6 |
| 20260506000219 | 83 | 158 | 9.6 | 12.2 | 0.00 | 0.00 | 0.00 | 83 | 1007.6 |
| 20260505235714 | 83 | 160 | 13.0 | 19.1 | 0.00 | 0.00 | 0.00 | 83 | 1007.4 |
| 20260505235212 | 84 | 191 | 14.8 | 18.2 | 0.00 | 0.00 | 0.00 | 82 | 1007.6 |
| 20260505234709 | 84 | 138 | 7.8 | 10.4 | 0.00 | 0.00 | 0.00 | 82 | 1007.4 |
| 20260505234206 | 84 | 199 | 11.3 | 18.2 | 0.00 | 0.00 | 0.00 | 81 | 1007.3 |
| 20260505233702 | 84 | 160 | 10.4 | 14.8 | 0.00 | 0.00 | 0.00 | 81 | 1007.3 |
| 20260505233200 | 85 | 169 | 9.6 | 12.2 | 0.00 | 0.00 | 0.00 | 80 | 1007.2 |
| 20260505232658 | 85 | 211 | 7.8 | 10.4 | 0.00 | 0.00 | 0.00 | 80 | 1007.0 |
| 20260505232155 | 85 | 146 | 13.0 | 22.6 | 0.00 | 0.00 | 0.00 | 79 | 1007.3 |
| 20260505231652 | 85 | 177 | 10.4 | 13.0 | 0.00 | 0.00 | 0.00 | 80 | 1007.3 |
| 20260505231151 | 85 | 133 | 11.3 | 13.0 | 0.00 | 0.00 | 0.00 | 80 | 1007.4 |
| 20260505230649 | 86 | 138 | 11.3 | 16.5 | 0.00 | 0.00 | 0.00 | 79 | 1007.1 |
| 20260505230145 | 86 | 183 | 12.2 | 18.2 | 0.00 | 0.00 | 0.00 | 77 | 1007.1 |
| 20260505225641 | 86 | 162 | 5.2 | 8.7 | 0.00 | 0.00 | 0.00 | 78 | 1007.0 |
| 20260505225137 | 87 | 138 | 9.6 | 18.2 | 0.00 | 0.00 | 0.00 | 78 | 1006.9 |
| 20260505224634 | 86 | 183 | 13.0 | 18.2 | 0.00 | 0.00 | 0.00 | 77 | 1007.0 |
| 20260505224132 | 87 | 128 | 7.8 | 10.4 | 0.00 | 0.00 | 0.00 | 76 | 1006.9 |
| 20260505223629 | 87 | 178 | 13.0 | 19.1 | 0.00 | 0.00 | 0.00 | 77 | 1007.2 |
| 20260505223125 | 87 | 194 | 17.4 | 25.2 | 0.00 | 0.00 | 0.00 | 77 | 1006.9 |
| 20260505222621 | 86 | 162 | 6.1 | 12.2 | 0.00 | 0.00 | 0.00 | 77 | 1007.0 |
| 20260505222117 | 86 | 147 | 6.1 | 8.7 | 0.00 | 0.00 | 0.00 | 77 | 1007.0 |
| 20260505221614 | 87 | 134 | 14.8 | 22.6 | 0.00 | 0.00 | 0.00 | 76 | 1007.1 |
| 20260505221111 | 87 | 181 | 15.6 | 22.6 | 0.00 | 0.00 | 0.00 | 74 | 1007.2 |
| 20260505220609 | 88 | 202 | 12.2 | 18.2 | 0.00 | 0.00 | 0.00 | 74 | 1007.0 |
| 20260505220106 | 89 | 122 | 8.7 | 14.8 | 0.00 | 0.00 | 0.00 | 74 | 1007.3 |
| 20260505215604 | 89 | 181 | 13.0 | 22.6 | 0.00 | 0.00 | 0.00 | 72 | 1007.2 |
| 20260505215101 | 88 | 157 | 13.9 | 20.9 | 0.00 | 0.00 | 0.00 | 73 | 1007.3 |
| 20260505214600 | 88 | 148 | 13.9 | 19.1 | 0.00 | 0.00 | 0.00 | 73 | 1007.5 |
| 20260505214056 | 89 | 166 | 16.5 | 27.8 | 0.00 | 0.00 | 0.00 | 72 | 1007.3 |
| 20260505213554 | 89 | 183 | 10.4 | 16.5 | 0.00 | 0.00 | 0.00 | 73 | 1007.3 |
| 20260505213050 | 89 | 122 | 7.0 | 8.7 | 0.00 | 0.00 | 0.00 | 73 | 1007.5 |
| 20260505212546 | 90 | 152 | 10.4 | 12.2 | 0.00 | 0.00 | 0.00 | 71 | 1007.6 |
| 20260505212044 | 89 | 121 | 11.3 | 14.8 | 0.00 | 0.00 | 0.00 | 72 | 1007.5 |
| 20260505211541 | 90 | 148 | 9.6 | 12.2 | 0.00 | 0.00 | 0.00 | 71 | 1007.8 |
| 20260505211037 | 91 | 210 | 4.3 | 4.3 | 0.00 | 0.00 | 0.00 | 70 | 1007.7 |
| 20260505210534 | 91 | 165 | 12.2 | 18.2 | 0.00 | 0.00 | 0.00 | 70 | 1007.7 |
| 20260505210031 | 91 | 177 | 12.2 | 14.8 | 0.00 | 0.00 | 0.00 | 69 | 1007.7 |
| 20260505205529 | 91 | 169 | 14.8 | 22.6 | 0.00 | 0.00 | 0.00 | 69 | 1007.9 |
| 20260505205026 | 91 | 194 | 9.6 | 12.2 | 0.00 | 0.00 | 0.00 | 68 | 1007.7 |
| 20260505204524 | 91 | 167 | 11.3 | 16.5 | 0.00 | 0.00 | 0.00 | 69 | 1008.1 |
| 20260505204021 | 91 | 159 | 7.8 | 10.4 | 0.00 | 0.00 | 0.00 | 69 | 1008.2 |
| 20260505203517 | 90 | 192 | 13.9 | 16.5 | 0.00 | 0.00 | 0.00 | 69 | 1008.1 |
| 20260505203014 | 90 | 157 | 8.7 | 10.4 | 0.00 | 0.00 | 0.00 | 70 | 1008.2 |
| 20260505202510 | 90 | 129 | 9.6 | 12.2 | 0.00 | 0.00 | 0.00 | 69 | 1008.5 |
| 20260505202006 | 91 | 133 | 11.3 | 18.2 | 0.00 | 0.00 | 0.00 | 69 | 1008.4 |